Orbital Elements at Epoch 2459200.5 (2020-Dec-17.0) TDB
Reference: JPL 13 (heliocentric ecliptic J2000)
Element | Value | Uncertainty (1-sigma) | Units |
e | .1171311531069617 | 5.2143e-08 | |
a | 3.099453481780562 | 3.1898e-08 | au |
q | 2.736410921458217 | 1.6063e-07 | au |
i | 14.23940348304791 | 6.0791e-06 | deg |
node | 121.140597117006 | 2.3191e-05 | deg |
peri | 60.9038717645482 | 3.4407e-05 | deg |
M | 99.45382560235306 | 2.6445e-05 | deg |
tp | 2458649.888721029959 (2019-Jun-15.38872103) | 0.00014514 | TDB |
period | 1993.086331558117 5.46 | 3.0768e-05 8.424e-08 | d yr |
n | .1806243885675369 | 2.7884e-09 | deg/d |
Q | 3.462496042102906 | 3.5635e-08 | au |
|
| | Orbit Determination Parameters
Additional Information
|